Fort Rucker / Ozark, AL

1:49 PM CDT on September 24, 2017 (GMT -0500)
Fort Rucker / Ozark

Weather History for KLOR - October, 2012

Change the Weather History Date:

Saturday, October 20, 2012

  Actual Average (KOZR) Record (KOZR)
Temperature  
Mean Temperature 59 °F -  
Max Temperature 75 °F 75 °F 89 °F (1998)
Min Temperature 43 °F 52 °F 37 °F (1996)
Degree Days  
Heating Degree Days 6    
Growing Degree Days 9 (Base 50)    
Moisture  
Dew Point 46 °F    
Average Humidity 70    
Maximum Humidity 93    
Minimum Humidity 30    
Precipitation  
Precipitation 0.00 in - - ()
Sea Level Pressure  
Sea Level Pressure 29.94 in    
Wind  
Wind Speed 1 mph (NW)    
Max Wind Speed 10 mph    
Max Gust Speed 16 mph    
Visibility 10 miles    
Events      
Averages and records for this station are not official NWS values.
T = Trace of Precipitation, MM = Missing Value Source: NWS Daily Summary

Daily Weather History Graph

Daily Weather History Graph

Search for Another Location

Airport or City:

Trip Planner

Search our weather history database for the weather conditions in past years. The results will help you decide how hot, cold, wet, or windy it might be!

Date:

Astronomy

Oct. 20, 2012 Rise Set
Actual Time 6:49 AM CDT 6:05 PM CDT
Civil Twilight 6:25 AM CDT 6:29 PM CDT
Nautical Twilight 5:56 AM CDT 6:57 PM CDT
Astronomical Twilight 5:28 AM CDT 7:26 PM CDT
Moon 12:14 PM CDT (10/20) 11:00 PM CDT (10/20)
Length of Visible Light 12h 04m
Length of Day
11h 15m
Waxing Crescent, 34% of the Moon is Illuminated
Oct 20
Waxing Crescent
Oct 21
First Quarter
Oct 29
Full
Nov 6
Last Quarter
Nov 13
New

Hourly Weather History & Observations

Time (CDT) Temp. Dew Point Humidity Pressure Visibility Wind Dir Wind Speed Gust Speed Precip Events Conditions
12:53 AM 48.0 °F 46.0 °F 93% 29.88 in 10.0 mi Calm Calm - N/A   Clear
1:53 AM 46.9 °F 45.0 °F 93% 29.88 in 10.0 mi Calm Calm - N/A   Clear
2:53 AM 46.0 °F 44.1 °F 93% 29.89 in 10.0 mi Calm Calm - N/A   Clear
3:53 AM 46.0 °F 44.1 °F 93% 29.90 in 10.0 mi Calm Calm - N/A   Clear
4:53 AM 45.0 °F 43.0 °F 93% 29.91 in 10.0 mi Calm Calm - N/A   Clear
5:53 AM 44.1 °F 41.0 °F 89% 29.94 in 10.0 mi Calm Calm - N/A   Clear
6:53 AM 43.0 °F 41.0 °F 93% 29.94 in 10.0 mi Calm Calm - N/A   Clear
7:53 AM 48.0 °F 46.0 °F 93% 29.96 in 10.0 mi Calm Calm - N/A   Clear
8:53 AM 57.0 °F 51.1 °F 81% 29.98 in 10.0 mi Calm Calm - N/A   Clear
9:53 AM 66.0 °F 48.0 °F 52% 29.98 in 10.0 mi Calm Calm - N/A   Clear
10:53 AM 70.0 °F 44.1 °F 39% 29.97 in 10.0 mi NW 5.8 mph - N/A   Clear
11:53 AM 73.0 °F 42.1 °F 33% 29.96 in 10.0 mi NW 8.1 mph - N/A   Clear
12:53 PM 75.0 °F 42.1 °F 31% 29.94 in 10.0 mi WNW 10.4 mph - N/A   Clear
1:53 PM 75.9 °F 42.1 °F 30% 29.92 in 10.0 mi NW 8.1 mph - N/A   Clear
2:53 PM 75.9 °F 43.0 °F 31% 29.90 in 10.0 mi North 5.8 mph 16.1 mph N/A   Clear
3:53 PM 75.9 °F 45.0 °F 33% 29.91 in 10.0 mi NW 8.1 mph - N/A   Clear
4:53 PM 73.9 °F 46.9 °F 38% 29.91 in 10.0 mi NW 5.8 mph - N/A   Clear
5:53 PM 70.0 °F 48.9 °F 47% 29.92 in 10.0 mi Calm Calm - N/A   Clear
6:53 PM 60.1 °F 52.0 °F 75% 29.94 in 10.0 mi Calm Calm - N/A   Clear
7:53 PM 57.0 °F 53.1 °F 87% 29.95 in 10.0 mi Calm Calm - N/A   Clear
8:53 PM 54.0 °F 52.0 °F 93% 29.96 in 10.0 mi Calm Calm - N/A   Clear
9:53 PM 53.1 °F 50.0 °F 89% 29.99 in 10.0 mi Calm Calm - N/A   Clear
10:53 PM 52.0 °F 48.9 °F 89% 29.99 in 10.0 mi Calm Calm - N/A   Clear
11:53 PM 50.0 °F 48.0 °F 93% 30.00 in 10.0 mi Calm Calm - N/A   Clear